Weather History for Plainview, TX

Change the Weather History Date:

Friday, February 28, 2014

  Actual Average Record
Temperature  
Mean Temperature 61 °F -  
Max Temperature 75 °F 59 °F 87 °F (2006)
Min Temperature 47 °F 32 °F 4 °F (1922)
Degree Days  
Heating Degree Days 4    
Growing Degree Days 11 (Base 50)    
Moisture  
Dew Point 21 °F    
Average Humidity 26    
Maximum Humidity 62    
Minimum Humidity 8    
Precipitation  
Precipitation 0.00 in - - ()
Sea Level Pressure  
Sea Level Pressure 29.72 in    
Wind  
Wind Speed 16 mph (West)    
Max Wind Speed 31 mph    
Max Gust Speed 41 mph    
Visibility 10 miles    
Events      
Averages and records for this station are not official NWS values.
T = Trace of Precipitation, MM = Missing Value Source: NWS Daily Summary

Daily Weather History Graph

Daily Weather History Graph

Search for Another Location

Airport:

Trip Planner

Search our weather history database for the weather conditions in past years. The results will help you decide how hot, cold, wet, or windy it might be!

Date:

Astronomy

Feb. 28, 2014 Rise Set
Actual Time 7:16 AM CST 6:42 PM CST
Civil Twilight 6:51 AM CST 7:07 PM CST
Nautical Twilight 6:22 AM CST 7:36 PM CST
Astronomical Twilight 5:53 AM CST 8:05 PM CST
Moon 6:32 AM CST (2/28) 6:20 PM CST (2/28)
Length of Visible Light 12h 15m
Length of Day
11h 25m
Waning Crescent, 1% of the Moon is Illuminated
Feb 28
Waning Crescent
Mar 1
New
Mar 8
First Quarter
Mar 16
Full
Mar 23
Last Quarter

Hourly Weather History & Observations

Time (CST) Temp. Dew Point Humidity Pressure Visibility Wind Dir Wind Speed Gust Speed Precip Events Conditions
12:15 AM 52.3 °F 36.7 °F 55% 29.63 in 10.0 mi SW 9.2 mph - N/A   Scattered Clouds
12:35 AM 50.2 °F 35.6 °F 57% 29.66 in 10.0 mi West 10.4 mph - N/A   Scattered Clouds
12:55 AM 50.0 °F 36.1 °F 59% 29.65 in 10.0 mi West 9.2 mph - N/A   Mostly Cloudy
1:15 AM 50.0 °F 37.4 °F 62% 29.63 in 10.0 mi SSW 8.1 mph - N/A   Mostly Cloudy
1:35 AM 50.0 °F 37.2 °F 62% 29.64 in 10.0 mi SW 13.8 mph 18.4 mph N/A   Scattered Clouds
1:55 AM 50.0 °F 35.8 °F 58% 29.64 in 10.0 mi WSW 9.2 mph - N/A   Mostly Cloudy
2:15 AM 50.0 °F 34.2 °F 55% 29.62 in 10.0 mi West 9.2 mph - N/A   Overcast
2:35 AM 55.2 °F 30.2 °F 38% 29.62 in 10.0 mi WNW 13.8 mph - N/A   Mostly Cloudy
2:55 AM 54.9 °F 30.4 °F 39% 29.61 in 10.0 mi West 11.5 mph - N/A   Clear
3:15 AM 54.9 °F 30.2 °F 39% 29.60 in 10.0 mi West 18.4 mph 26.5 mph N/A   Clear
3:35 AM 52.9 °F 30.2 °F 42% 29.59 in 10.0 mi West 17.3 mph - N/A   Clear
3:55 AM 54.9 °F 31.8 °F 42% 29.59 in 10.0 mi West 18.4 mph - N/A   Clear
4:15 AM 54.3 °F 31.6 °F 42% 29.59 in 10.0 mi West 20.7 mph 27.6 mph N/A   Clear
4:35 AM 54.9 °F 30.0 °F 39% 29.59 in 10.0 mi West 25.3 mph 32.2 mph N/A   Clear
4:55 AM 54.9 °F 28.4 °F 36% 29.59 in 7.0 mi West 23.0 mph 33.4 mph N/A   Clear
5:15 AM 54.9 °F 27.1 °F 34% 29.60 in 7.0 mi West 27.6 mph 35.7 mph N/A   Clear
5:35 AM 54.9 °F 27.1 °F 34% 29.61 in 7.0 mi West 24.2 mph 32.2 mph N/A   Clear
5:55 AM 53.6 °F 26.2 °F 35% 29.61 in 7.0 mi West 24.2 mph 31.1 mph N/A   Clear
6:15 AM 52.3 °F 25.3 °F 35% 29.63 in 10.0 mi West 23.0 mph 32.2 mph N/A   Clear
6:35 AM 52.3 °F 24.8 °F 34% 29.64 in 10.0 mi West 25.3 mph 33.4 mph N/A   Clear
6:55 AM 52.3 °F 24.4 °F 34% 29.64 in 10.0 mi West 23.0 mph 34.5 mph N/A   Clear
7:15 AM 51.1 °F 23.5 °F 34% 29.65 in 10.0 mi West 21.9 mph 28.8 mph N/A   Clear
7:35 AM 50.0 °F 22.8 °F 34% 29.66 in 10.0 mi West 19.6 mph 26.5 mph N/A   Clear
7:55 AM 51.1 °F 23.4 °F 34% 29.67 in 10.0 mi West 23.0 mph 27.6 mph N/A   Clear
8:15 AM 52.3 °F 23.7 °F 33% 29.68 in 10.0 mi West 21.9 mph 31.1 mph N/A   Clear
8:35 AM 54.7 °F 24.6 °F 31% 29.70 in 10.0 mi West 23.0 mph 29.9 mph N/A   Clear
8:55 AM 54.9 °F 23.2 °F 29% 29.71 in 10.0 mi West 26.5 mph 33.4 mph N/A   Clear
9:15 AM 56.3 °F 22.5 °F 27% 29.73 in 5.0 mi West 25.3 mph 38.0 mph N/A   Haze
9:35 AM 57.4 °F 22.1 °F 26% 29.73 in 5.0 mi WNW 31.1 mph 40.3 mph N/A   Haze
9:55 AM 59.9 °F 23.0 °F 24% 29.74 in 5.0 mi WNW 31.1 mph 41.4 mph N/A   Haze
10:15 AM 59.9 °F 22.3 °F 24% 29.74 in 7.0 mi WNW 27.6 mph 36.8 mph N/A   Clear
10:35 AM 61.2 °F 22.1 °F 22% 29.75 in 5.0 mi WNW 28.8 mph 34.5 mph N/A   Haze
10:55 AM 62.6 °F 22.1 °F 21% 29.75 in 7.0 mi WNW 24.2 mph 34.5 mph N/A   Clear
11:15 AM 64.6 °F 21.7 °F 19% 29.75 in 10.0 mi WNW 25.3 mph 33.4 mph N/A   Clear
11:35 AM 67.5 °F 21.4 °F 17% 29.75 in 10.0 mi WNW 20.7 mph 28.8 mph N/A   Clear
11:55 AM 69.3 °F 21.7 °F 17% 29.76 in 10.0 mi NW 23.0 mph 28.8 mph N/A   Clear
12:15 PM 70.0 °F 21.2 °F 16% 29.77 in 10.0 mi WNW 23.0 mph 27.6 mph N/A   Clear
12:35 PM 70.0 °F 20.1 °F 15% 29.76 in 10.0 mi WNW 18.4 mph - N/A   Clear
12:55 PM 70.0 °F 18.5 °F 14% 29.76 in 10.0 mi WNW 17.3 mph 25.3 mph N/A   Clear
1:15 PM 70.0 °F 18.0 °F 14% 29.75 in 10.0 mi West 15.0 mph 24.2 mph N/A   Clear
1:35 PM 70.5 °F 16.9 °F 13% 29.74 in 10.0 mi West 16.1 mph 23.0 mph N/A   Clear
1:55 PM 72.0 °F 17.2 °F 13% 29.74 in 10.0 mi West 17.3 mph 23.0 mph N/A   Clear
2:15 PM 72.0 °F 16.3 °F 12% 29.73 in 10.0 mi WNW 18.4 mph 26.5 mph N/A   Clear
2:35 PM 74.3 °F 16.2 °F 11% 29.73 in 10.0 mi West 16.1 mph 26.5 mph N/A   Clear
2:55 PM 75.2 °F 15.8 °F 11% 29.73 in 10.0 mi WNW 19.6 mph 25.3 mph N/A   Clear
3:15 PM 75.2 °F 13.3 °F 9% 29.73 in 10.0 mi WNW 17.3 mph 24.2 mph N/A   Clear
3:35 PM 75.2 °F 11.1 °F 9% 29.72 in 10.0 mi WNW 18.4 mph 24.2 mph N/A   Clear
3:55 PM 75.2 °F 9.3 °F 8% 29.73 in 10.0 mi WNW 18.4 mph 21.9 mph N/A   Clear
4:15 PM 75.2 °F 8.8 °F 8% 29.73 in 10.0 mi West 19.6 mph 25.3 mph N/A   Clear
4:35 PM 75.2 °F 9.5 °F 8% 29.73 in 10.0 mi WNW 15.0 mph 23.0 mph N/A   Clear
4:55 PM 75.2 °F 10.8 °F 8% 29.74 in 10.0 mi West 18.4 mph 24.2 mph N/A   Clear
5:15 PM 75.2 °F 10.4 °F 8% 29.75 in 10.0 mi West 20.7 mph 26.5 mph N/A   Clear
5:35 PM 75.2 °F 9.7 °F 8% 29.75 in 10.0 mi West 19.6 mph - N/A   Clear
5:55 PM 72.5 °F 9.3 °F 9% 29.76 in 10.0 mi West 13.8 mph 21.9 mph N/A   Clear
6:15 PM 70.0 °F 9.9 °F 10% 29.77 in 10.0 mi West 18.4 mph - N/A   Clear
6:35 PM 69.6 °F 11.7 °F 11% 29.79 in 10.0 mi West 11.5 mph - N/A   Clear
6:55 PM 63.1 °F 11.3 °F 13% 29.79 in 10.0 mi WSW 5.8 mph - N/A   Clear
7:15 PM 59.9 °F 11.3 °F 15% 29.79 in 10.0 mi West 10.4 mph - N/A   Clear
7:35 PM 61.3 °F 11.1 °F 14% 29.80 in 10.0 mi WNW 6.9 mph - N/A   Clear
7:55 PM 57.7 °F 10.9 °F 16% 29.81 in 10.0 mi WNW 6.9 mph - N/A   Clear
8:15 PM 54.9 °F 11.8 °F 18% 29.81 in 10.0 mi West 9.2 mph - N/A   Clear
8:35 PM 53.6 °F 14.9 °F 22% 29.82 in 10.0 mi WSW 8.1 mph - N/A   Clear
8:55 PM 57.4 °F 13.6 °F 18% 29.83 in 10.0 mi West 4.6 mph - N/A   Clear
9:15 PM 54.9 °F 18.1 °F 24% 29.83 in 10.0 mi WSW 3.5 mph - N/A   Clear
9:35 PM 50.0 °F 12.9 °F 23% 29.84 in 10.0 mi SSW 4.6 mph - N/A   Clear
9:55 PM 50.0 °F 14.4 °F 24% 29.85 in 10.0 mi WSW 6.9 mph - N/A   Clear
10:15 PM 47.3 °F 15.4 °F 28% 29.85 in 10.0 mi WSW 8.1 mph - N/A   Clear
10:35 PM 50.0 °F 17.4 °F 28% 29.85 in 10.0 mi WSW 5.8 mph - N/A   Clear
10:55 PM 50.0 °F 16.7 °F 27% 29.86 in 10.0 mi West 5.8 mph - N/A   Clear
11:15 PM 50.0 °F 16.9 °F 27% 29.86 in 10.0 mi SW 4.6 mph - N/A   Clear
11:35 PM 52.3 °F 18.7 °F 27% 29.86 in 10.0 mi WSW 6.9 mph - N/A   Clear
11:55 PM 52.9 °F 22.5 °F 31% 29.86 in 10.0 mi West 11.5 mph - N/A   Clear